Flag for El Salvador Weather past 2 weeks in Santa Ana, El Salvador

Now
81 °F

Sunny.


Feels Like: 85 °F
Forecast: 64 / 87 °F
Wind: 13 mph from North

Location: San Salvador / Ilopango

Current Time: Jul 25, 2014 at 9:23:55 AM

Latest Report: Jul 25, 2014 at 8:50 AM


Visibility: 10 mi

Pressure: 29.98 "Hg

Humidity: 74%

Dew point: 72 °F

Location of Santa AnaLocation

Historic Weather in Santa Ana — Graph

°F

Santa Ana temperature yesterday

Maximum temperature yesterday: 91 °F (at 3:50 PM)
Minimum temperature yesterday: 70 °F (at 5:50 AM)
Average temperature yesterday: 82 °F

Past Weeks' High & Low Weather Summary

 TemperatureHumidityPressure
High91 °F (Jul 11, 2:50 PM)100% (Jul 12, 10:50 PM)30.92 "Hg (Jul 12, 10:50 PM)
Low70 °F (Jul 11, 5:50 AM)49% (Jul 20, 12:50 PM)29.89 "Hg (Jul 10, 3:50 PM)
Average81 °F76%29.98 "Hg
* Reported Jul 10 7:50 AM — Jul 25 7:50 AM, Santa Ana, Weather by CustomWeather, © 2014

Note: Actual official high and low records may vary slightly from our data, if they occured in-between our weather recording intervals... More about our weather records

Advertising

Santa Ana weather history for previous 24 hours

 ConditionsComfort  
Time TempWeatherWind HumidityBarometerVisibility
7:50 AM
Jul 25
75 °FSunny.7 mph83%29.98 "Hg10 mi
6:50 AM72 °FSunny.7 mph88%29.98 "Hg10 mi
5:50 AM72 °FSunny.7 mph83%29.98 "Hg10 mi
11:50 PM
Jul 24
75 °FPassing clouds.10 mph78%30.01 "HgN/A
10:50 PM75 °FClear.2 mph78%29.98 "Hg10 mi
9:50 PM77 °FClear.5 mph74%29.98 "Hg10 mi
8:50 PM79 °FClear.5 mph74%29.98 "Hg10 mi
7:50 PM81 °FClear.No wind70%29.95 "Hg10 mi
6:50 PM82 °FClear.No wind66%29.95 "Hg10 mi
5:50 PM88 °FPassing clouds.2 mph55%29.92 "HgN/A
4:50 PM90 °FPassing clouds.2 mph52%29.92 "HgN/A
3:50 PM91 °FPassing clouds.5 mph52%29.92 "HgN/A
2:50 PM90 °FPassing clouds.5 mph55%29.92 "HgN/A
12:50 PM88 °FPassing clouds.6 mph59%29.95 "HgN/A
11:50 AM88 °FPassing clouds.7 mph62%29.98 "HgN/A
10:50 AM86 °FPassing clouds.5 mph62%29.98 "HgN/A
9:50 AM84 °FSunny.3 mph70%29.95 "Hg10 mi
Weather by CustomWeather, © 2014

See weather overviewHow to use our weather pages